Regional Weather Roundup
Issued by NWS San Angelo, TX

Home | Current Version | Previous Version | Text Only | Print | Product List | Glossary On
Versions: 1 2 3 4 5 6 7 8 9 10 11 12 13 14 15 16 17 18 19 20 21 22 23 24 25 26 27 28 29 30 31 32 33 34 35 36 37 38 39 40 41 42 43 44 45 46 47 48 49 50
000
ASUS44 KSJT 300910
RWRSJT
WEST CENTRAL TEXAS REGIONAL WEATHER ROUNDUP
NATIONAL WEATHER SERVICE SAN ANGELO TX
400 AM CDT WED JUL 30 2014

NOTE: "FAIR" INDICATES FEW OR NO CLOUDS BELOW 12,000 FEET WITH NO
SIGNIFICANT WEATHER AND/OR OBSTRUCTIONS TO VISIBILITY.

TXZ049-054-064>066-071>073-076>078-098-099-113-114-127-128-139-140-
154-155-168>170-301000
...LOCATIONS ACROSS WEST CENTRAL TEXAS...

CITY           SKY/WX    TMP DP  RH WIND       PRES   REMARKS
SAN ANGELO     PTCLDY    78  67  68 S10       30.03S
ABILENE        PTCLDY    75  68  78 S12       30.03F
DYESS AFB      CLOUDY    73  69  85 S13       30.02F
JUNCTION       CLEAR     78  66  66 VRB5      30.05F
SWEETWATER     PTCLDY    74  67  76 SE15      30.07S
BROWNWOOD      MOCLDY    77  70  78 SE7       30.05S
COLEMAN        PTSUNNY   76  67  71 SE7       30.06R
SONORA         CLEAR     79  57  47 S8        30.09S
OZONA          FAIR      77  52  41 S9        30.08S
BRADY          CLEAR     75  66  73 SE8       30.05S
$$

TEXAS PANHANDLE/OKLAHOMA PANHANDLE

CITY           SKY/WX    TMP DP  RH WIND       PRES   REMARKS
AMARILLO       CLOUDY    67  62  84 SE10      30.09F
BORGER         MOCLDY    70  63  78 S13       30.06F
CANADIAN       CLOUDY    70  66  86 S8        30.05S
DALHART        PTCLDY    68  63  84 S10       30.09F
DUMAS          PTSUNNY   66  61  84 S10       30.08F
GUYMON         NOT AVBL
HEREFORD       TSTM      69  67  92 S15G22    30.12S
PAMPA          PTSUNNY   66  61  85 S18       30.08F
PERRYTON       CLOUDY    68  63  83 S12       30.05F
$$

SOUTHERN PANHANDLE/SOUTH PLAINS/ROLLING PLAINS

CITY           SKY/WX    TMP DP  RH WIND       PRES   REMARKS
LUBBOCK        CLOUDY    71  64  78 S12       30.07F
SNYDER         PTCLDY    72  66  82 S9        30.04S
CHILDRESS      CLOUDY    69  67  93 E7        30.05F
SEMINOLE       PTSUNNY   69  63  81 CALM      30.08F
$$

PERMIAN BASIN

CITY           SKY/WX    TMP DP  RH WIND       PRES   REMARKS
MIDLAND        PTCLDY    76  54  46 SE8       30.04F
ODESSA           N/A     80  51  36 S12       30.06F
WINK           PTCLDY    81  52  36 SE10      30.01F
$$

FAR WEST/SOUTHWEST MOUNTAINS/TRANS PECOS

CITY           SKY/WX    TMP DP  RH WIND       PRES   REMARKS
ALPINE         SUNNY     76  48  36 S10       30.20R
DRYDEN           N/A     84  52  33 E8        30.01F
EL PASO        PTCLDY    77  67  71 N3        30.06F
FORT STOCKTON  CLEAR     79  52  38 S15G23    30.04S
GUADALUPE PASS MOCLDY    73  51  46 NE5       30.21S
MARFA          CLEAR     63  50  63 CALM      30.20S
PECOS          MOSUNNY   80  49  33 E8        29.99S
$$

DALLAS/FORT WORTH METROPLEX

CITY           SKY/WX    TMP DP  RH WIND       PRES   REMARKS
DFW AIRPORT    MOCLDY    76  65  68 SE6       30.02S
FTW MEACHAM    MOCLDY    75  64  68 SE7       30.02S
DAL-EXECUTIVE  MOCLDY    75  66  73 SE6       30.03S
GRAND PRAIRIE  PTCLDY    75  64  67 CALM      30.04S
ADDISON        CLOUDY    79  63  57 SE6       30.05R
MESQUITE       PTSUNNY   71  67  87 CALM      30.04R
LANCASTER      MOSUNNY   69  64  85 CALM      30.04S
$$

NORTH CENTRAL TEXAS

CITY           SKY/WX    TMP DP  RH WIND       PRES   REMARKS
SHRMAN/DENISON CLOUDY    76  63  65 CALM      30.05F
GAINESVILLE    CLOUDY    73  62  68 E5        30.06S
BRIDGEPORT     CLOUDY    70  64  81 CALM      30.05S
DENTON         CLOUDY    73  66  78 CALM      30.03S
WAXAHACHIE     MOSUNNY   74  65  72 SE3       30.05S
GRANBURY       CLOUDY    77  65  68 SE6       30.05S
$$

WESTERN NORTH TEXAS

CITY           SKY/WX    TMP DP  RH WIND       PRES   REMARKS
WICHITA FALLS  RAIN      70  62  76 CALM      30.07R
VERNON         CLOUDY    71  67  89 E9        30.05F
BRECKENRIDGE   PTSUNNY   79  62  55 SE9       30.02S
COMANCHE       CLOUDY    75  66  72 SE7       30.05S
$$

CENTRAL AND SOUTH CENTRAL TEXAS

CITY           SKY/WX    TMP DP  RH WIND       PRES   REMARKS
AUSTIN/BERGSTM PTCLDY    73  69  87 SE5       30.03F
WACO           PTCLDY    75  69  81 SE9       30.04S
HILLSBORO      PTSUNNY   75  67  75 E9        30.04R
TEMPLE         CLEAR     73  66  78 SE7       30.05S
KILLEEN-GRAY   PTCLDY    75  72  88 SE6       30.05R
FORT HOOD      CLEAR     77  72  84 SE6       30.04F
GEORGETOWN     PTCLDY    75  72  88 SE5       30.04F
LAGO VISTA     FAIR      77  67  71 S6        30.05F
SAN MARCOS     PTCLDY    73  64  73 S3        30.07S
NEW BRAUNFELS  MOCLDY    74  68  81 E3        30.04S
RANDOLPH AFB   PTCLDY    76  71  83 S7        30.05F
SAN ANTONIO    PTCLDY    77  71  82 S7        30.05F
STINSON        CLEAR     76  71  85 E5        30.02F
PLEASANTON     NOT AVBL
LA GRANGE      CLEAR     75  73  92 CALM      30.03S
GIDDINGS       SUNNY     73  70  90 CALM      30.08F
$$

EAST TEXAS

CITY           SKY/WX    TMP DP  RH WIND       PRES   REMARKS
PARIS          MOCLDY    72  63  73 E6        30.07R
CLARKSVILLE    PTSUNNY   74  65  74 SE3       30.06S
TYLER          PTCLDY    76  66  71 SE10      30.06S
LONGVIEW       CLEAR     73  65  75 SE7       30.06S
PALESTINE      NOT AVBL
NACOGDOCHES    CLEAR     73  66  78 SE7       30.06F
$$

TEXAS HILL COUNTRY AND EDWARDS PLATEAU

CITY           SKY/WX    TMP DP  RH WIND       PRES   REMARKS
LLANO          MOSUNNY   75  68  78 CALM      30.07S
HORSESHOE BAY  FAIR      77  66  68 S5        30.04S
KERRVILLE      PTCLDY    73  62  68 SE6       30.08S
FREDERICKSBRG  CLEAR     74  61  62 S5        30.07F
ROCKSPRINGS    SUNNY     75  57  53 SE15      30.10S
HONDO          PTCLDY    74  65  73 E6        30.06S
UVALDE         SUNNY     75  61  60 E7        30.05R
DEL RIO        CLEAR     82  65  56 SE8       29.99S
$$

SOUTHEAST TEXAS

CITY           SKY/WX    TMP DP  RH WIND       PRES   REMARKS
COLLEGE STN    CLEAR     75  73  93 S3        30.04F
CALDWELL       SUNNY     73  73 100 CALM      30.08S
CROCKETT       SUNNY     73  73 100 CALM      30.08S
BRENHAM        CLEAR     73  72  94 CALM      30.05F
HUNTSVILLE     CLOUDY    78  66  66 S6        30.05S
CONROE         CLEAR     70  69  97 CALM      30.05F
HOUSTON BUSH   PTCLDY    74  72  93 CALM      30.04S
HOUSTON HOBBY  PTCLDY    75  73  93 CALM      30.03F
PERLAND        CLEAR     76  72  87 CALM      30.05S
WHARTON        SUNNY     72  71  98 CALM      30.05S
$$

THE UPPER TEXAS COAST

CITY           SKY/WX    TMP DP  RH WIND       PRES   REMARKS
ORANGE         SUNNY     71  71 100 CALM      30.05S
PORT ARTHUR    CLEAR     74  71  91 CALM      30.03S
GALVESTON      MOCLDY    82  76  81 CALM      30.04S
ANGLETON       CLEAR     74  73  97 CALM      30.03F
BAY CITY       SUNNY     75  75 100 CALM      30.03S
$$

TEXAS COASTAL BEND, RIO GRANDE PLAINS DEEP SOUTH TEXAS

CITY           SKY/WX    TMP DP  RH WIND       PRES   REMARKS
VICTORIA       CLEAR     77  74  90 E3        30.04S
BEEVILLE       FAIR      74  74 100 CALM      30.03S
ROCKPORT       PTCLDY    80  75  84 S6        30.01F
PORT ARANSAS   PTSUNNY   78  76  94 SW6       30.02S
PORT LAVACA    MOSUNNY   76  74  93 CALM      30.03S
CORPUS CHRISTI PTCLDY    74  71  91 S5        30.02S
KINGSVILLE NAS CLEAR     75  74  96 S5        30.02S
COTULLA        CLEAR     78  67  68 SE9       30.02R
LAREDO         CLEAR     81  71  71 S15       30.03F
BROWNSVILLE    MOCLDY    75  73  94 E3        30.04S
PORT ISABEL    CLEAR     79  74  84 S7        30.02F
HEBBRONVILLE   MOSUNNY   77  73  86 S8        30.04S
MCALLEN        CLEAR     78  74  87 SE7       30.03S
WESLACO        NOT AVBL
FALFURRIAS     SUNNY     59  32  35 S3        30.02S
EDINBURG       SUNNY     78  74  87 S6        30.02F
$$


USA.gov is the U.S. government's official web portal to all federal, state and local government web resources and services.